Location: Grange Rosano
(44.4500°N, 6.9667°E)
Time: 07:41:50
(UTC+00:00)

Cosmos 332 Rocket - Pass Details

Date: 26 May 2022
Orbit: 681 x 703 km, 74.0° (Epoch: 01 July)

Event Time Altitude Azimuth Distance (km) Brightness Sun altitude
Exits shadow 00:28:28 49° 132° (SE) 880 4.1 -23.1°
Maximum altitude 00:29:03 52° 106° (ESE) 844 4.1 -23.0°
Drops below altitude 10° 00:33:42 10° 30° (NNE) 2,131 7.4 -22.8°
Sets 00:36:03 0° 26° (NNE) 3,051 8.5 -22.7°
